Home   Weather   Råholt   Past weeks

Flag for Norway Past Weather in Råholt, Norway — Yesterday and Last 2 Weeks

Now
36 °F

Sunny.


Feels Like: 36 °F
Forecast: 34 / 38 °F
Wind: 2 mph from North

Location: Oslo Gardermoen Airport

Current Time: Dec 9, 2016 at 10:39:13 am

Latest Report: Dec 9, 2016 at 9:50 am


Visibility: 10 mi

Pressure: 29.71 "Hg

Humidity: 70%

Dew Point: 27 °F

Location of RåholtLocation

Past Weather in Råholt — Graph

°F

Råholt Temperature Yesterday

Maximum temperature yesterday: 48 °F (at 3:20 pm)
Minimum temperature yesterday: 36 °F (at 8:50 pm)
Average temperature yesterday: 41 °F

High & Low Weather Summary for the Past Weeks

 TemperatureHumidityPressure
High48 °F (Nov 25, 5:50 pm)100% (Nov 25, 12:50 am)30.39 "Hg (Nov 25, 12:50 am)
Low18 °F (Dec 4, 12:50 am)36% (Nov 26, 2:20 pm)29.47 "Hg (Dec 8, 7:50 am)
Average32 °F71%29.95 "Hg
* Reported Nov 24 9:20 am — Dec 9 9:20 am, Råholt, Weather by CustomWeather, © 2016

Note: Actual official high and low records may vary slightly from our data, if they occured in-between our weather recording intervals... More about our weather records

Advertising

Råholt Weather History for the Previous 24 Hours

Scroll right to see more
 ConditionsComfort  
Time TempWeatherWind HumidityBarometerVisibility
9:20 am
Fri, Dec 9
36 °FSunny.2 mph70%29.71 "Hg10 mi
8:50 am36 °FClear.2 mph75%29.71 "Hg10 mi
8:20 am36 °FPassing clouds.3 mph81%29.68 "HgN/A
7:50 am32 °FClear.6 mph93%29.68 "Hg10 mi
7:20 am34 °FPassing clouds.3 mph87%29.68 "HgN/A
6:50 am34 °FClear.5 mph93%29.68 "Hg10 mi
6:20 am34 °FPassing clouds.3 mph87%29.68 "HgN/A
5:20 am39 °FPassing clouds.7 mph75%29.71 "HgN/A
4:50 am36 °FClear.8 mph81%29.68 "Hg10 mi
4:20 am39 °FClear.9 mph70%29.68 "Hg10 mi
3:50 am41 °FClear.2 mph70%29.68 "Hg10 mi
3:20 am41 °FPassing clouds.3 mph70%29.71 "HgN/A
2:50 am39 °FClear.8 mph75%29.71 "Hg10 mi
2:20 am39 °FClear.8 mph75%29.71 "Hg10 mi
1:50 am43 °FClear.6 mph66%29.71 "Hg10 mi
1:20 am46 °FClear.6 mph57%29.74 "Hg10 mi
12:50 am46 °FClear.7 mph62%29.74 "Hg10 mi
12:20 am46 °FClear.8 mph57%29.74 "Hg10 mi
11:50 pm
Thu, Dec 8
45 °FPassing clouds.7 mph66%29.74 "HgN/A
11:20 pm41 °FClear.2 mph76%29.74 "Hg10 mi
10:50 pm43 °FClear.1 mph71%29.74 "Hg10 mi
10:20 pm39 °FPassing clouds.3 mph81%29.74 "HgN/A
9:50 pm39 °FPassing clouds.5 mph81%29.74 "HgN/A
9:20 pm36 °FClear.2 mph87%29.74 "Hg10 mi
8:50 pm36 °FClear.2 mph87%29.74 "Hg10 mi
8:20 pm37 °FClear.No wind81%29.74 "Hg10 mi
7:50 pm37 °FClear.No wind81%29.74 "Hg10 mi
7:20 pm37 °FClear.No wind70%29.71 "Hg10 mi
6:50 pm41 °FPassing clouds.3 mph66%29.74 "HgN/A
6:20 pm41 °FClear.5 mph66%29.71 "Hg10 mi
5:50 pm45 °FClear.5 mph61%29.71 "Hg10 mi
5:20 pm43 °FClear.3 mph66%29.71 "Hg10 mi
4:50 pm46 °FClear.No wind62%29.68 "Hg10 mi
4:20 pm48 °FFog.2 mph54%29.65 "HgN/A
3:50 pm48 °FFog.3 mph58%29.65 "HgN/A
3:20 pm48 °FFog.3 mph58%29.65 "HgN/A
2:50 pm45 °FFog.3 mph71%29.65 "HgN/A
2:20 pm45 °FSunny.1 mph76%29.62 "Hg10 mi
1:50 pm45 °FPassing clouds.3 mph76%29.62 "HgN/A
1:20 pm43 °FSunny.3 mph81%29.59 "Hg10 mi
12:50 pm45 °FSunny.No wind76%29.56 "Hg10 mi
12:20 pm41 °FScattered clouds.5 mph87%29.53 "HgN/A
11:50 am41 °FScattered clouds.10 mph93%29.53 "HgN/A
11:20 am41 °FScattered clouds.7 mph87%29.50 "HgN/A
10:50 am41 °FScattered clouds.10 mph93%29.50 "HgN/A
10:20 am41 °FScattered clouds.12 mph100%29.50 "HgN/A
Weather by CustomWeather, © 2016

See weather overviewHow to use our weather pages